Lapse_Rate
6.3 7.1 7.0 6.5 6.9 7.0 6.6 6.6 5.9 6.7 6.3 6.0 6.1 5.8 5.7 6.2 6.6 6.6 6.2 6.0 5.8 5.7 5.2 4.8 4.6 4.9 5.4 5.4 5.4 5.6 5.2 4.8 4.8 5.4 6.0 6.0 5.3 4.8 5.2 5.8 6.3 5.9 5.8 6.0
6.4 6.5 6.7 6.4 6.3 6.8 6.5 5.9 6.4 6.1 6.5 5.9 6.1 5.6 6.0 6.3 6.4 6.1 6.0 5.9 5.7 5.7 5.4 5.0 5.1 4.9 5.6 4.9 5.5 5.7 5.9 4.9 4.8 5.3 6.0 5.1 5.1 5.3 5.3 5.4 5.7 6.0 6.2 5.9
5.9 6.1 6.4 6.4 6.3 6.6 6.2 6.6 6.3 6.2 5.8 6.0 6.5 6.3 6.0 6.4 6.1 6.0 5.6 5.5 5.4 5.4 5.4 5.5 5.2 5.1 5.5 5.2 5.6 5.8 5.2 5.1 5.2 5.4 5.9 5.3 5.3 5.3 5.4 5.4 5.3 5.5 5.4 5.8
5.3 6.0 6.1 6.5 6.2 6.1 6.2 6.4 6.1 6.1 5.7 5.8 6.4 6.4 6.4 6.5 6.1 6.1 5.5 5.4 6.0 5.8 5.5 5.4 5.1 5.3 5.1 5.2 5.7 5.3 4.6 4.8 5.0 5.2 4.9 4.7 4.7 4.8 4.7 5.0 5.3 5.2 6.2 6.2
5.0 5.8 6.2 6.2 5.9 6.3 6.3 6.2 6.1 6.0 6.3 6.5 6.2 6.3 6.2 6.4 5.9 5.7 5.7 6.0 6.2 6.0 5.6 5.4 5.4 4.8 4.9 5.5 5.6 5.7 5.3 5.0 5.1 5.2 4.7 4.8 5.0 5.7 5.1 4.5 4.9 5.0 5.9 7.0
4.6 5.4 6.1 5.8 6.0 6.1 6.3 6.5 6.5 6.3 6.2 6.2 6.0 6.5 6.6 6.4 5.9 5.9 6.2 5.9 5.8 5.8 5.8 5.4 5.1 5.1 5.1 5.6 5.4 5.5 5.3 5.2 5.2 5.0 4.8 5.1 5.3 5.6 5.7 5.6 6.0 6.4 7.4 7.6
4.4 5.1 5.5 5.4 5.6 5.8 6.4 6.5 6.4 6.4 6.6 6.6 6.6 6.3 6.3 6.2 6.3 6.2 5.8 5.7 5.6 6.0 5.6 5.4 5.6 5.5 5.3 5.4 5.6 5.6 5.3 5.3 5.3 5.2 5.4 5.5 5.9 6.2 6.1 5.8 6.6 6.9 7.3 7.3
4.2 4.9 5.3 5.4 5.5 5.9 6.3 6.8 6.5 6.3 6.4 6.7 6.3 6.3 6.3 6.1 6.0 5.9 6.0 5.8 5.6 5.7 5.5 5.8 5.8 5.6 5.4 5.6 5.7 5.8 5.5 5.4 5.4 5.4 5.5 6.4 6.7 6.7 6.8 6.7 7.1 7.2 7.1 6.9
3.9 4.6 5.1 5.4 5.6 6.1 6.3 6.5 6.5 6.5 6.5 6.3 6.4 6.4 6.2 6.0 5.9 5.9 5.7 5.6 5.4 5.6 5.7 5.7 5.6 5.5 5.6 5.5 5.4 5.9 5.7 5.4 5.1 5.3 5.3 5.3 6.8 6.9 7.2 7.3 7.2 7.3 7.5 7.5
3.7 4.4 5.2 5.5 5.6 6.2 6.2 6.6 6.5 6.4 6.3 6.7 6.7 6.6 6.2 6.1 6.0 5.7 5.6 5.4 5.5 5.8 5.5 5.6 6.0 5.3 5.4 5.5 5.4 5.4 5.3 5.1 5.0 5.3 5.4 6.4 6.8 6.7 6.9 7.0 7.0 7.3 7.5 7.6
3.4 4.1 5.0 5.4 5.6 5.7 6.4 6.6 6.4 6.5 6.7 6.4 6.3 6.3 6.2 6.0 5.8 5.4 5.4 5.7 5.6 5.2 5.3 5.6 5.6 5.6 5.5 5.5 5.6 5.5 5.4 5.4 5.1 5.0 5.1 5.3 6.5 6.7 6.7 6.7 6.8 7.0 7.2 7.4
3.4 4.0 4.6 5.2 5.7 5.5 6.2 6.4 6.5 6.5 6.5 6.4 6.1 6.4 5.8 5.9 5.7 5.4 5.3 5.9 5.5 5.1 5.2 5.6 5.5 5.6 5.5 5.3 5.4 5.7 5.4 6.0 5.9 6.1 6.3 6.5 6.3 6.5 6.6 6.7 6.9 7.1 7.2 7.3
3.5 4.0 4.6 5.3 5.7 5.5 6.1 6.5 6.6 6.5 6.3 6.2 6.3 6.1 5.9 5.9 5.4 5.1 5.4 5.5 5.6 5.5 5.5 5.3 5.6 5.5 5.4 5.3 5.4 5.5 5.8 6.0 6.0 6.2 6.4 6.4 6.5 6.5 6.6 6.8 7.0 7.1 7.3 7.4
3.7 4.0 4.8 5.2 5.7 6.1 6.4 6.5 6.4 6.2 6.1 6.2 6.3 6.1 5.9 5.7 5.4 5.3 5.3 5.6 5.5 5.8 5.6 5.6 5.9 5.7 5.6 5.5 5.6 5.7 5.8 6.0 6.3 6.5 6.4 6.4 6.6 6.6 6.6 6.7 6.8 7.0 7.2 7.5
3.9 4.5 5.1 5.3 6.0 6.1 6.7 6.5 6.4 6.3 6.3 6.4 6.1 5.9 5.9 5.6 5.5 5.4 5.4 5.6 5.6 5.6 5.7 5.7 5.7 5.8 5.6 5.6 5.5 5.9 6.3 6.5 6.5 6.3 6.1 6.3 6.4 6.9 6.6 6.5 6.8 7.0 7.2 7.3
4.3 4.9 5.3 5.6 5.5 5.9 6.2 6.0 6.1 6.2 6.4 6.6 6.2 5.9 5.7 5.4 5.5 5.6 5.6 5.5 5.5 5.6 5.9 5.7 5.8 6.1 5.9 5.9 6.0 6.6 6.4 6.6 6.4 6.2 6.1 6.2 6.3 6.3 6.5 6.5 6.6 6.8 6.9 6.7
4.8 5.1 5.5 5.8 6.1 5.9 5.9 6.3 6.6 6.4 6.3 6.2 6.1 6.0 5.9 5.7 5.7 5.5 5.2 5.1 5.2 5.4 5.3 5.6 5.9 5.9 5.5 5.8 6.2 6.7 6.4 6.2 5.9 5.7 5.7 6.1 6.4 6.5 6.5 6.5 6.5 6.7 6.7 6.5
5.1 5.3 5.6 5.8 6.2 6.2 6.3 6.5 6.6 6.5 6.2 6.0 5.8 5.8 5.9 6.0 5.7 5.5 5.4 5.4 5.4 5.3 5.2 5.4 5.6 5.6 5.6 5.6 6.3 6.2 5.9 6.0 5.8 5.8 6.0 6.2 6.4 6.5 6.6 6.5 6.5 6.5 6.4 6.3
5.3 5.4 5.8 6.0 6.0 6.2 6.4 6.4 6.5 6.4 6.2 5.8 5.9 6.0 6.0 5.9 5.7 5.7 5.6 5.5 5.4 5.5 5.4 5.3 5.4 5.5 5.7 6.2 6.4 6.2 6.3 6.1 6.1 6.3 6.4 6.4 6.5 6.6 6.6 6.5 6.6 6.2 6.1 5.8
5.5 5.7 5.6 5.8 6.2 6.3 6.5 6.2 6.0 5.9 6.2 5.5 5.7 6.0 6.0 5.9 5.7 5.5 5.4 5.7 5.6 5.5 5.6 5.7 5.9 6.4 6.6 6.6 6.5 6.6 6.5 6.5 6.4 6.4 6.4 6.4 6.5 6.6 6.6 6.6 6.1 5.8 5.7 5.6
5.4 5.5 5.9 5.9 6.1 6.5 6.3 6.3 5.7 5.7 5.7 5.8 6.4 6.3 6.3 5.9 5.8 5.6 5.5 5.6 5.8 5.9 5.9 5.8 6.1 6.9 7.0 7.0 6.7 6.6 6.8 6.9 6.5 6.4 6.6 6.4 6.3 6.8 6.8 6.7 6.2 5.9 5.6 5.4
5.3 5.8 6.1 6.1 6.3 6.3 6.0 5.9 5.6 5.5 5.9 6.4 6.7 6.7 6.5 6.0 5.8 5.6 5.7 5.9 6.0 6.0 5.7 5.7 6.3 7.3 7.0 7.2 7.2 7.0 7.2 6.9 6.6 6.6 6.7 6.8 6.7 6.5 6.3 6.3 6.2 5.9 5.5 5.2
6.0 6.3 6.3 6.4 6.4 6.2 6.0 5.4 5.3 5.9 6.8 7.2 7.6 6.8 6.0 6.0 5.8 5.8 5.9 6.0 6.0 5.9 5.9 6.2 6.9 7.1 7.1 7.3 7.4 7.4 7.5 7.4 6.9 6.6 6.7 6.5 6.4 6.3 6.0 5.8 5.7 5.5 5.4 5.3
6.2 6.5 6.4 6.7 6.3 6.1 6.1 6.7 7.0 7.3 7.9 7.8 7.8 7.2 5.9 5.9 5.9 5.9 6.2 6.1 6.1 6.1 6.2 7.1 7.3 7.2 7.1 7.2 7.2 7.0 7.0 7.0 6.8 6.4 6.3 6.3 6.2 6.0 5.9 5.6 5.4 5.4 5.3 5.2
6.3 6.5 6.5 6.1 5.8 6.0 6.4 7.0 7.1 7.1 7.4 7.7 7.4 6.6 6.1 6.2 5.9 6.1 6.4 6.4 6.4 6.7 7.6 7.6 7.5 7.6 7.5 7.5 7.3 7.1 7.0 6.7 6.3 5.9 6.0 6.0 6.0 5.9 5.9 5.8 5.6 5.4 5.3 4.8
6.2 6.4 6.0 6.1 6.3 6.3 6.7 7.1 7.3 7.2 7.3 7.0 6.0 6.1 6.1 6.1 6.1 6.1 6.3 6.4 7.2 7.7 7.9 7.9 7.9 7.8 7.6 7.5 7.4 7.2 7.0 6.6 6.0 5.8 5.8 5.8 5.7 5.7 5.5 5.4 5.1 5.1 4.7 4.9
5.9 6.2 6.0 6.0 6.3 6.6 7.0 7.1 7.2 7.2 7.0 6.9 6.2 6.2 6.6 6.2 6.3 6.3 6.6 7.4 8.1 7.8 7.9 7.9 8.0 8.0 7.9 7.7 7.6 7.4 6.9 6.3 5.9 5.8 5.8 5.7 5.5 5.4 5.2 5.1 5.0 4.7 5.0 5.2
Wind_Speed
29 31 33 34 33 31 9 4 2 7 17 6 3 4 8 5 5 2 2 3 5 6 7 5 8 10 7 6 10 10 9 4 4 12 12 14 15 10 15 10 8 5 4 14
29 29 32 33 29 28 4 3 2 5 10 5 5 7 4 3 4 5 5 6 5 8 6 6 10 8 7 9 11 13 11 5 4 8 1 10 9 16 18 11 9 11 2 9
29 28 29 32 30 27 8 2 3 3 5 2 12 9 6 5 4 5 5 4 7 7 7 9 4 6 4 5 12 10 14 3 7 8 8 3 7 10 16 14 7 8 13 19
28 27 27 31 28 30 5 5 3 3 5 6 10 5 9 11 7 6 10 5 15 8 6 9 10 10 6 5 10 10 10 6 10 16 18 18 20 23 15 17 19 7 12 7
25 28 27 28 25 32 1 1 3 3 6 13 13 13 8 11 13 7 7 11 12 15 9 9 6 9 8 7 4 9 4 7 3 19 20 22 17 16 16 18 16 15 23 3
24 25 25 26 25 19 2 4 2 2 10 8 6 7 7 12 7 7 13 13 13 12 17 16 12 2 2 2 2 6 5 4 2 11 12 14 1 3 1 8 11 11 3 2
22 24 24 25 23 16 3 3 3 2 4 9 9 6 8 9 11 7 5 12 11 6 9 6 8 10 11 12 10 9 4 9 6 7 12 4 2 3 7 11 9 5 8 4
22 23 22 24 25 19 5 3 2 1 4 6 8 11 5 7 8 12 16 12 11 8 3 3 3 3 4 6 6 9 10 4 2 4 4 6 4 5 1 3 2 2 6 5
21 21 22 24 26 20 6 6 2 2 4 4 5 6 5 3 3 2 4 3 7 8 3 3 4 4 3 4 2 2 4 2 3 3 4 2 4 2 3 2 2 4 2 4
20 21 23 24 24 20 8 4 4 2 2 0 4 3 3 3 2 2 2 4 2 2 4 3 3 3 4 5 5 4 4 1 6 3 3 7 7 6 4 3 3 3 3 3
19 20 21 23 20 18 8 6 5 1 2 2 3 5 4 2 2 1 1 3 2 2 2 3 3 2 5 3 4 5 5 6 4 3 2 6 3 5 3 2 1 1 2 1
18 20 20 22 19 18 14 3 1 2 1 1 2 2 3 4 3 3 3 3 1 4 3 1 2 1 2 4 3 2 4 6 4 7 5 3 3 2 3 1 1 1 1 3
19 19 19 20 20 17 12 4 3 2 1 2 1 5 3 4 5 3 2 2 1 1 2 3 2 2 4 4 5 3 3 3 2 0 1 5 5 3 2 5 3 5 6 7
19 20 20 19 19 17 14 3 2 1 2 1 2 2 1 4 5 2 1 2 3 2 1 0 2 1 4 3 2 3 5 6 5 4 6 4 5 3 4 5 7 10 9 7
22 20 21 19 18 17 9 5 3 1 1 1 1 1 2 4 5 5 4 5 3 1 2 2 3 2 2 0 1 3 5 6 4 5 4 2 2 5 6 7 6 7 12 11
22 21 19 18 15 13 4 2 2 3 2 2 2 1 1 2 4 4 3 2 1 1 1 2 1 2 1 2 2 5 3 3 3 2 3 3 4 5 2 6 7 8 9 11
24 23 20 16 12 3 3 1 3 6 3 2 2 2 1 2 3 2 2 2 1 1 1 2 1 1 2 2 3 3 4 6 2 4 7 5 3 4 6 11 11 13 11 10
26 22 16 13 9 7 5 2 6 4 3 2 1 1 2 1 1 1 0 1 0 1 2 1 1 1 0 3 6 2 1 4 5 5 3 3 9 10 9 10 13 12 10 10
21 17 11 2 3 2 1 7 7 3 2 3 2 3 2 1 0 1 1 1 1 1 2 1 1 1 4 5 5 4 6 3 6 6 7 8 11 11 10 10 9 13 8 9
5 4 3 3 3 13 10 2 2 2 2 2 2 2 1 0 0 1 1 2 0 1 1 2 1 3 4 3 2 0 5 7 9 8 4 6 7 10 9 6 6 10 10 10
1 2 1 1 11 2 2 2 2 1 1 2 3 3 3 1 1 2 1 1 1 1 3 1 2 3 3 2 2 2 6 8 3 3 6 6 9 11 12 9 9 10 10 10
5 3 1 2 2 2 3 2 1 2 4 2 3 3 3 2 1 2 1 1 0 3 2 1 3 3 1 3 4 2 5 7 5 4 9 11 12 11 11 11 11 8 10 11
1 1 1 1 1 3 6 7 2 3 3 3 3 3 3 2 2 3 2 2 2 1 1 4 4 2 1 1 2 4 4 6 7 8 9 13 12 11 13 12 9 12 11 9
2 1 3 3 3 3 3 3 3 2 1 6 3 3 3 2 2 1 3 0 1 1 2 5 2 4 3 2 2 4 4 6 7 8 10 13 13 12 11 11 11 12 12 9
1 1 1 0 1 1 1 2 2 2 2 2 3 3 2 2 3 1 3 1 3 5 4 3 2 3 4 3 3 6 6 7 8 9 11 12 13 13 12 9 10 12 11 11
1 2 1 2 1 1 1 1 1 1 3 1 3 3 2 1 4 3 6 6 6 4 3 2 1 4 4 5 5 6 6 8 9 9 11 12 12 13 12 11 10 10 10 10
2 1 1 2 2 2 1 1 2 1 1 2 3 4 6 3 2 2 4 5 3 2 2 1 3 4 6 6 7 7 8 10 10 12 11 13 13 12 13 13 7 10 10 10
Wind_Direction
333 332 336 342 349 342 319 148 178 160 153 148 183 166 150 134 153 127 84 107 127 181 183 231 217 223 232 173 144 179 206 240 246 240 226 205 212 233 229 230 239 235 293 278
331 333 337 340 350 345 318 158 123 175 144 145 144 143 133 133 123 178 164 172 186 197 208 229 228 215 232 224 164 173 172 225 285 298 137 225 230 230 233 240 263 253 277 287
332 336 336 339 349 350 330 105 167 105 174 226 157 136 158 164 193 160 164 174 171 195 214 214 258 229 271 197 199 194 170 230 214 241 273 312 254 249 224 214 240 258 245 255
330 337 338 340 350 348 321 186 157 163 166 160 158 147 155 185 179 219 190 223 211 204 217 224 223 226 279 281 216 190 170 256 245 260 273 269 257 252 228 215 227 233 300 234
334 333 339 341 356 347 285 343 165 184 121 139 156 179 200 190 204 184 202 221 205 213 218 207 204 213 206 228 184 168 207 263 311 274 275 278 261 252 222 218 219 238 258 220
330 333 338 342 0 356 333 327 297 118 151 158 158 181 163 204 187 221 223 214 233 210 228 230 235 296 310 254 288 189 178 227 253 281 298 312 99 260 235 162 178 211 144 223
328 333 338 340 350 354 296 279 264 107 161 179 202 181 196 208 200 218 241 226 232 216 246 231 231 277 287 280 258 217 215 227 262 295 301 359 135 184 192 156 252 32 37 36
327 332 336 337 342 343 319 294 267 263 132 174 170 202 191 229 239 239 243 230 241 167 128 114 155 226 233 229 211 189 207 181 281 278 301 288 32 355 7 177 250 357 127 126
325 334 334 333 338 349 331 301 236 305 121 204 123 169 181 197 216 228 227 239 220 187 169 180 168 184 163 190 186 81 131 212 175 343 318 305 231 301 321 269 9 351 84 170
327 334 330 331 336 350 335 277 286 307 113 350 131 164 156 163 177 234 282 275 100 163 159 149 150 186 164 167 190 156 143 175 223 252 277 285 261 283 292 68 242 346 323 202
323 331 325 327 337 348 338 285 266 304 71 215 184 154 151 158 190 240 261 255 214 121 197 144 183 156 203 141 207 173 162 153 192 199 249 289 344 336 39 229 306 325 292 247
322 327 320 326 336 342 338 276 310 230 63 280 323 253 172 188 188 174 173 317 276 181 152 198 104 124 134 162 206 236 205 185 181 184 215 257 302 297 329 256 24 26 144 113
324 318 317 324 327 334 335 286 246 96 114 271 348 236 217 209 194 148 190 225 23 196 194 158 155 218 136 177 230 188 256 175 218 86 315 264 272 282 38 5 79 84 92 109
316 314 318 322 319 328 331 290 287 153 137 207 241 112 182 143 129 138 166 1 295 256 195 165 109 247 187 221 185 183 201 143 182 264 278 271 253 224 134 89 92 90 73 84
315 312 314 315 320 327 317 276 239 225 225 307 329 244 188 143 147 167 192 240 271 220 206 168 183 229 176 247 90 236 185 185 172 219 200 175 269 163 143 128 116 106 112 95
315 314 312 313 315 316 276 198 207 180 211 27 328 324 179 113 158 173 201 261 252 256 183 236 248 267 173 164 230 257 212 239 197 201 101 86 97 98 80 106 112 104 105 115
316 314 309 304 301 283 243 312 298 156 108 162 323 328 343 155 144 171 203 200 223 240 235 215 217 221 171 199 218 242 311 239 143 122 119 83 191 161 109 109 106 99 91 93
308 303 294 292 282 275 266 230 186 121 104 93 136 279 313 307 177 157 353 203 243 263 313 340 350 303 72 260 247 231 136 99 80 27 12 139 113 100 101 115 118 107 106 110
303 295 273 235 220 222 173 122 77 65 127 157 131 154 242 2 30 70 57 334 228 337 234 162 166 195 225 233 224 183 194 174 144 71 70 98 116 120 119 120 115 118 117 114
280 134 186 196 201 123 135 54 109 12 334 56 201 137 167 263 225 39 53 349 16 292 271 313 198 258 254 216 185 259 170 141 139 116 102 117 116 135 135 130 114 127 127 122
312 190 204 344 113 113 43 89 130 156 227 201 199 164 139 169 168 149 7 172 329 287 275 289 259 265 248 324 256 322 167 158 137 95 114 109 136 141 130 113 108 114 117 120
286 305 5 70 59 59 136 161 58 201 224 203 167 160 124 104 6 106 53 139 4 249 304 291 256 253 260 352 358 38 137 136 111 122 123 121 122 126 118 119 117 103 108 115
347 32 87 126 59 163 191 177 192 213 192 187 161 123 116 108 61 69 69 108 227 342 242 239 236 259 304 17 50 76 75 98 107 105 107 113 112 115 123 115 109 113 106 105
47 100 182 196 171 235 189 207 191 249 141 146 120 96 111 114 89 123 99 150 24 321 284 239 252 209 165 107 91 115 109 102 102 105 113 114 115 109 105 110 118 118 112 108
75 24 343 304 31 351 299 234 275 276 147 89 96 75 89 106 113 112 123 119 247 221 236 235 238 165 136 118 108 118 111 109 105 109 109 109 109 105 94 94 103 104 108 104
90 60 52 313 263 222 270 251 279 267 135 111 57 110 101 146 135 123 207 145 227 248 222 240 150 133 116 117 109 104 104 107 111 111 114 112 109 109 106 92 89 92 103 105
13 270 270 224 242 250 264 241 250 154 150 161 119 123 197 91 65 263 199 210 226 239 278 224 169 145 133 119 105 100 105 108 108 107 103 106 106 107 102 98 80 87 84 89